This is the latest recevied weather packets stored in our database for station/object XE2MEM-21. If no packets are shown the sender has not sent any weather packets the latest 10 day(s).
| Time | Temp. | Humidity | Pressure | Rain* | Wind** | Luminosity | Snow |
|---|---|---|---|---|---|---|---|
| 1777799544 | 20.56° C | 96% | 1017.5 hPa | - | - | - | - |
| 1777798644 | 21.11° C | 93% | 1017.6 hPa | - | - | - | - |
| 1777797744 | 21.11° C | 89% | 1017.8 hPa | - | - | - | - |
| 1777796844 | 21.67° C | 89% | 1017.9 hPa | - | - | - | - |
| 1777795944 | 21.11° C | 90% | 1018.1 hPa | - | - | - | - |
| 1777795044 | 21.11° C | 92% | 1018.3 hPa | - | - | - | - |
| 1777794144 | 21.11° C | 97% | 1018.2 hPa | - | - | - | - |
| 1777793244 | 21.11° C | 99% | 1018.2 hPa | - | - | - | - |
| 1777792344 | 21.11° C | 91% | 1018.2 hPa | - | - | - | - |
| 1777791444 | 21.11° C | 89% | 1018.3 hPa | - | - | - | - |
| 1777790544 | 21.11° C | 89% | 1018.3 hPa | - | - | - | - |
| 1777789643 | 21.67° C | 87% | 1018.5 hPa | - | - | - | - |
| 1777788743 | 21.67° C | 86% | 1018.7 hPa | - | - | - | - |
| 1777787843 | 21.67° C | 86% | 1018.9 hPa | - | - | - | - |
| 1777786943 | 21.67° C | 86% | 1018.7 hPa | - | - | - | - |
| 1777786043 | 21.67° C | 84% | 1018.9 hPa | - | - | - | - |
| 1777785143 | 21.67° C | 89% | 1018.8 hPa | - | - | - | - |
| 1777784243 | 21.67° C | 88% | 1018.9 hPa | - | - | - | - |
| 1777783343 | 22.22° C | 87% | 1018.9 hPa | - | - | - | - |
| 1777782443 | 21.67° C | 90% | 1018.7 hPa | - | - | - | - |
| 1777781543 | 21.67° C | 90% | 1018.4 hPa | - | - | - | - |
| 1777780643 | 21.67° C | 88% | 1018.5 hPa | - | - | - | - |
| 1777779743 | 21.11° C | 90% | 1018.6 hPa | - | - | - | - |
| 1777778843 | 21.11° C | 93% | 1018.5 hPa | - | - | - | - |
| 1777777942 | 21.11° C | 92% | 1018.2 hPa | - | - | - | - |
* Rain since midnight (hover to see other rain measurements)
** Current wind speed in m/s (hover to see current wind gust speed)